| time (UTC) | temp F | wind direction | speed MPH | gust MPH | rain 1hr in | rain 24hr in | rain mn in | humidity % | barometer mb |
| 20260507234556 | 46 | 277 | 0.0 | 0.0 | 0.00 | 0.01 | 0.00 | 55 | 1007.3 |
| 20260507233100 | 47 | 229 | 0.0 | 0.0 | 0.00 | 0.01 | 0.00 | 54 | 1007.1 |
| 20260507231555 | 47 | 246 | 0.0 | 0.0 | 0.00 | 0.01 | 0.00 | 52 | 1007.0 |
| 20260507230050 | 48 | 296 | 0.0 | 0.0 | 0.00 | 0.01 | 0.00 | 51 | 1006.8 |
| 20260507224553 | 48 | 279 | 0.0 | 0.0 | 0.00 | 0.06 | 0.00 | 52 | 1006.8 |
| 20260507223048 | 48 | 264 | 0.0 | 0.0 | 0.00 | 0.06 | 0.00 | 51 | 1006.8 |
| 20260507221546 | 49 | 198 | 0.0 | 0.0 | 0.00 | 0.06 | 0.00 | 51 | 1006.7 |
| 20260507220039 | 50 | 292 | 0.0 | 0.0 | 0.00 | 0.06 | 0.00 | 50 | 1006.7 |
| 20260507214527 | 50 | 249 | 0.0 | 0.0 | 0.00 | 0.06 | 0.00 | 52 | 1006.7 |
| 20260507213036 | 49 | 221 | 0.0 | 0.0 | 0.00 | 0.06 | 0.00 | 53 | 1006.7 |
| 20260507211542 | 50 | 118 | 0.0 | 0.0 | 0.00 | 0.06 | 0.00 | 52 | 1006.8 |
| 20260507210012 | 49 | 165 | 0.0 | 0.0 | 0.00 | 0.12 | 0.00 | 53 | 1006.5 |
| 20260507204502 | 49 | 281 | 0.0 | 0.0 | 0.00 | 0.12 | 0.00 | 53 | 1006.7 |
| 20260507203108 | 49 | 222 | 0.0 | 0.0 | 0.00 | 0.12 | 0.00 | 54 | 1006.5 |
| 20260507201557 | 48 | 5 | 0.0 | 0.0 | 0.00 | 0.12 | 0.00 | 57 | 1006.6 |
| 20260507200051 | 48 | 244 | 0.0 | 0.0 | 0.00 | 0.22 | 0.00 | 56 | 1006.7 |
| 20260507194531 | 49 | 260 | 0.0 | 0.0 | 0.00 | 0.22 | 0.00 | 56 | 1006.8 |
| 20260507193014 | 49 | 259 | 0.0 | 0.0 | 0.00 | 0.22 | 0.00 | 55 | 1007.0 |
| 20260507191530 | 49 | 312 | 0.0 | 0.0 | 0.00 | 0.22 | 0.00 | 53 | 1007.0 |
| 20260507190015 | 50 | 200 | 0.0 | 0.0 | 0.00 | 0.38 | 0.00 | 53 | 1007.0 |
| 20260507184556 | 51 | 254 | 0.0 | 0.0 | 0.00 | 0.38 | 0.00 | 51 | 1007.3 |
| 20260507183035 | 50 | 234 | 0.0 | 0.0 | 0.00 | 0.38 | 0.00 | 52 | 1007.3 |
| 20260507181515 | 50 | 277 | 0.0 | 0.0 | 0.00 | 0.38 | 0.00 | 54 | 1007.7 |
| 20260507180110 | 49 | 232 | 0.0 | 0.0 | 0.00 | 0.61 | 0.00 | 55 | 1007.6 |
| 20260507174639 | 49 | 308 | 0.0 | 0.0 | 0.00 | 0.61 | 0.00 | 54 | 1007.7 |
| 20260507173101 | 48 | 246 | 0.0 | 0.0 | 0.00 | 0.61 | 0.00 | 54 | 1007.9 |
| 20260507171627 | 49 | 242 | 0.0 | 0.0 | 0.00 | 0.61 | 0.00 | 55 | 1007.8 |
| 20260507170054 | 48 | 208 | 0.0 | 0.0 | 0.00 | 0.71 | 0.00 | 53 | 1007.9 |
| 20260507164508 | 48 | 225 | 0.0 | 0.0 | 0.00 | 0.71 | 0.00 | 56 | 1008.0 |
| 20260507163032 | 47 | 324 | 0.0 | 0.0 | 0.00 | 0.71 | 0.00 | 57 | 1008.4 |
| 20260507161526 | 47 | 244 | 0.0 | 0.0 | 0.00 | 0.71 | 0.00 | 58 | 1008.6 |
| 20260507160120 | 47 | 230 | 0.0 | 0.0 | 0.00 | 0.73 | 0.00 | 61 | 1008.6 |
| 20260507154558 | 47 | 188 | 0.0 | 0.0 | 0.00 | 0.73 | 0.00 | 59 | 1008.7 |
| 20260507153049 | 46 | 239 | 0.0 | 0.0 | 0.00 | 0.73 | 0.00 | 59 | 1009.0 |
| 20260507151559 | 45 | 309 | 0.0 | 0.0 | 0.00 | 0.73 | 0.00 | 59 | 1008.9 |
| 20260507150054 | 45 | 315 | 0.0 | 0.0 | 0.00 | 0.73 | 0.00 | 62 | 1008.7 |
| 20260507144530 | 46 | 319 | 0.0 | 0.0 | 0.00 | 0.73 | 0.00 | 66 | 1008.8 |
| 20260507143008 | 45 | 293 | 0.0 | 0.0 | 0.00 | 0.73 | 0.00 | 67 | 1008.8 |
| 20260507141633 | 44 | 242 | 0.0 | 0.0 | 0.00 | 0.73 | 0.00 | 70 | 1008.9 |
| 20260507140110 | 44 | 235 | 0.0 | 0.0 | 0.00 | 0.73 | 0.00 | 72 | 1008.7 |
| 20260507134538 | 43 | 277 | 0.0 | 0.0 | 0.00 | 0.73 | 0.00 | 74 | 1008.6 |
| 20260507133026 | 43 | 257 | 0.0 | 0.0 | 0.00 | 0.73 | 0.00 | 76 | 1008.6 |
| 20260507131502 | 43 | 259 | 0.0 | 0.0 | 0.00 | 0.73 | 0.00 | 77 | 1008.6 |
| 20260507130042 | 42 | 313 | 0.0 | 0.0 | 0.00 | 0.73 | 0.00 | 78 | 1008.6 |
| 20260507124535 | 41 | 196 | 0.0 | 0.0 | 0.00 | 0.73 | 0.00 | 80 | 1008.5 |
| 20260507123106 | 41 | 278 | 0.0 | 0.0 | 0.00 | 0.73 | 0.00 | 81 | 1008.5 |
| 20260507121512 | 41 | 275 | 0.0 | 0.0 | 0.00 | 0.73 | 0.00 | 81 | 1008.4 |
| 20260507114547 | 40 | 265 | 0.0 | 0.0 | 0.00 | 0.73 | 0.00 | 85 | 1008.1 |
| 20260507113008 | 40 | 244 | 0.0 | 0.0 | 0.00 | 0.73 | 0.00 | 87 | 1008.0 |
| 20260507111506 | 40 | 258 | 0.0 | 0.0 | 0.00 | 0.73 | 0.00 | 91 | 1008.2 |
| 20260507110106 | 40 | 315 | 0.0 | 0.0 | 0.00 | 0.73 | 0.00 | 93 | 1008.2 |
| 20260507104559 | 40 | 240 | 0.0 | 0.0 | 0.00 | 0.73 | 0.00 | 94 | 1008.1 |
| 20260507103039 | 40 | 182 | 0.0 | 0.0 | 0.00 | 0.73 | 0.00 | 95 | 1007.8 |
| 20260507101527 | 40 | 254 | 0.0 | 0.0 | 0.00 | 0.73 | 0.00 | 95 | 1007.5 |
| 20260507100104 | 40 | 305 | 0.0 | 0.0 | 0.00 | 0.73 | 0.00 | 95 | 1007.5 |
| 20260507094604 | 41 | 139 | 0.0 | 0.0 | 0.00 | 0.73 | 0.00 | 95 | 1007.6 |
| 20260507093100 | 41 | 233 | 0.0 | 0.0 | 0.00 | 0.73 | 0.00 | 95 | 1007.7 |
| 20260507091550 | 42 | 233 | 0.0 | 0.0 | 0.00 | 0.73 | 0.00 | 95 | 1007.6 |
| 20260507090010 | 42 | 233 | 0.0 | 0.0 | 0.00 | 0.73 | 0.00 | 95 | 1007.8 |
| 20260507084606 | 41 | 235 | 0.0 | 0.0 | 0.00 | 0.73 | 0.00 | 95 | 1008.0 |
| 20260507083106 | 41 | 148 | 0.0 | 0.0 | 0.00 | 0.73 | 0.00 | 96 | 1008.2 |
| 20260507081551 | 41 | 254 | 0.0 | 0.0 | 0.00 | 0.73 | 0.00 | 96 | 1008.1 |
| 20260507080052 | 41 | 240 | 0.0 | 0.0 | 0.00 | 0.73 | 0.00 | 96 | 1007.8 |
| 20260507074535 | 41 | 246 | 0.0 | 0.0 | 0.00 | 0.73 | 0.00 | 96 | 1007.6 |
| 20260507073136 | 42 | 242 | 0.0 | 0.0 | 0.00 | 0.73 | 0.00 | 97 | 1007.7 |
| 20260507071556 | 42 | 240 | 0.0 | 0.0 | 0.00 | 0.73 | 0.00 | 97 | 1007.5 |
| 20260507070110 | 42 | 219 | 0.0 | 0.0 | 0.00 | 0.73 | 0.00 | 97 | 1007.4 |
| 20260507064606 | 42 | 190 | 0.0 | 0.0 | 0.00 | 0.73 | 0.00 | 96 | 1007.6 |
| 20260507063059 | 42 | 190 | 0.0 | 0.0 | 0.00 | 0.73 | 0.00 | 96 | 1006.9 |
| 20260507061604 | 42 | 190 | 0.0 | 0.0 | 0.00 | 0.73 | 0.00 | 96 | 1007.2 |
| 20260507060045 | 42 | 190 | 0.0 | 0.0 | 0.00 | 0.73 | 0.00 | 96 | 1006.9 |
| 20260507054509 | 43 | 190 | 0.0 | 0.0 | 0.00 | 0.73 | 0.00 | 96 | 1007.5 |
| 20260507053057 | 42 | 194 | 0.0 | 0.0 | 0.00 | 0.73 | 0.00 | 96 | 1007.2 |
| 20260507051535 | 43 | 194 | 0.0 | 0.0 | 0.00 | 0.73 | 0.00 | 96 | 1007.6 |
| 20260507050111 | 43 | 194 | 0.0 | 0.0 | 0.00 | 0.73 | 0.00 | 96 | 1008.0 |
| 20260507044559 | 43 | 194 | 0.0 | 0.0 | 0.00 | 0.73 | 0.00 | 96 | 1007.7 |
| 20260507043037 | 44 | 42 | 0.0 | 0.0 | 0.00 | 0.73 | 0.00 | 96 | 1007.3 |
| 20260507041507 | 44 | 32 | 0.0 | 0.0 | 0.00 | 0.73 | 0.00 | 96 | 1007.2 |
| 20260507040112 | 44 | 30 | 0.0 | 0.0 | 0.00 | 0.73 | 0.00 | 96 | 1006.9 |
| 20260507034544 | 45 | 32 | 0.0 | 0.0 | 0.00 | 0.73 | 0.73 | 96 | 1007.2 |
| 20260507033044 | 45 | 32 | 0.0 | 0.0 | 0.00 | 0.73 | 0.73 | 96 | 1007.2 |
| 20260507031539 | 45 | 13 | 0.0 | 0.0 | 0.00 | 0.73 | 0.73 | 96 | 1007.1 |
| 20260507030034 | 45 | 11 | 0.0 | 0.0 | 0.00 | 0.73 | 0.73 | 96 | 1006.9 |
| 20260507024517 | 45 | 17 | 0.0 | 0.0 | 0.00 | 0.73 | 0.73 | 96 | 1007.0 |
| 20260507023059 | 45 | 188 | 0.0 | 0.0 | 0.00 | 0.73 | 0.73 | 96 | 1007.0 |
| 20260507021558 | 45 | 165 | 0.0 | 0.0 | 0.00 | 0.73 | 0.73 | 96 | 1006.7 |
| 20260507020044 | 45 | 159 | 0.0 | 0.0 | 0.00 | 0.73 | 0.73 | 96 | 1006.9 |
| 20260507014531 | 45 | 190 | 0.0 | 0.0 | 0.00 | 0.73 | 0.73 | 96 | 1007.0 |
| 20260507013137 | 45 | 190 | 0.0 | 0.0 | 0.00 | 0.73 | 0.73 | 95 | 1007.0 |
| 20260507011605 | 46 | 227 | 0.0 | 0.0 | 0.00 | 0.73 | 0.73 | 95 | 1006.7 |
| 20260507010040 | 47 | 254 | 0.0 | 0.0 | 0.00 | 0.73 | 0.73 | 95 | 1006.2 |
| 20260507004532 | 48 | 264 | 0.0 | 0.0 | 0.01 | 0.73 | 0.73 | 95 | 1006.2 |
| 20260507003005 | 48 | 245 | 0.0 | 0.0 | 0.01 | 0.73 | 0.73 | 95 | 1005.9 |
| 20260507001607 | 50 | 181 | 0.0 | 0.0 | 0.01 | 0.73 | 0.73 | 96 | 1005.3 |
| 20260507000101 | 51 | 270 | 0.0 | 0.0 | 0.01 | 0.73 | 0.73 | 96 | 1004.9 |